South Daytona, FL

4:10 AM EDT on August 29, 2016 (GMT -0400)
Daytona Beach International

Weather History for KDAB - February, 2014

Change the Weather History Date:

Sunday, February 9, 2014

  Actual Average Record
Temperature  
Mean Temperature 59 °F 60 °F  
Max Temperature 68 °F 70 °F 85 °F (1949)
Min Temperature 49 °F 49 °F 27 °F (1995)
Degree Days  
Heating Degree Days 6 7  
Month to date heating degree days 28 63  
Since 1 July heating degree days 422 580  
Cooling Degree Days 0 1  
Month to date cooling degree days 34 9  
Year to date cooling degree days 59 38  
Growing Degree Days 7 (Base 50)    
Moisture  
Dew Point 50 °F    
Average Humidity 76    
Maximum Humidity 93    
Minimum Humidity 58    
Precipitation  
Precipitation 0.00 in 0.09 in 1.60 in (1978)
Month to date precipitation 1.59 0.86  
Year to date precipitation 4.36 3.60  
Sea Level Pressure  
Sea Level Pressure 30.11 in    
Wind  
Wind Speed 6 mph (North)    
Max Wind Speed 16 mph    
Max Gust Speed 21 mph    
Visibility 10 miles    
Events      
T = Trace of Precipitation, MM = Missing Value Source: NWS Daily Summary

Daily Weather History Graph

Daily Weather History Graph

Search for Another Location

Airport or City:

Trip Planner

Search our weather history database for the weather conditions in past years. The results will help you decide how hot, cold, wet, or windy it might be!

Date:

Astronomy

Feb. 09, 2014 Rise Set
Actual Time 7:07 AM EST 6:09 PM EST
Civil Twilight 6:43 AM EST 6:33 PM EST
Nautical Twilight 6:15 AM EST 7:01 PM EST
Astronomical Twilight 5:47 AM EST 7:29 PM EST
Moon 1:56 PM EST (2/9) 3:04 AM EST (2/9)
Length of Visible Light 11h 50m
Length of Day
11h 01m
Waxing Gibbous, 77% of the Moon is Illuminated
Feb 9
Waxing Gibbous
Feb 14
Full
Feb 22
Last Quarter
Mar 1
New
Mar 8
First Quarter

Hourly Weather History & Observations

Time (EST) Temp. Dew Point Humidity Pressure Visibility Wind Dir Wind Speed Gust Speed Precip Events Conditions
12:53 AM 50.0 °F 46.9 °F 89% 30.12 in 10.0 mi NW 4.6 mph - N/A   Scattered Clouds
1:53 AM 50.0 °F 48.0 °F 93% 30.09 in 10.0 mi Calm Calm - N/A   Mostly Cloudy
2:53 AM 52.0 °F 48.9 °F 89% 30.07 in 10.0 mi North 5.8 mph - N/A   Mostly Cloudy
3:53 AM 50.0 °F 46.9 °F 89% 30.07 in 10.0 mi WNW 4.6 mph - N/A   Scattered Clouds
4:53 AM 48.9 °F 46.0 °F 90% 30.08 in 10.0 mi NW 5.8 mph - N/A   Scattered Clouds
5:53 AM 48.9 °F 46.9 °F 93% 30.08 in 9.0 mi NW 4.6 mph - N/A   Partly Cloudy
6:53 AM 48.9 °F 46.9 °F 93% 30.09 in 8.0 mi NNW 3.5 mph - N/A   Partly Cloudy
7:53 AM 50.0 °F 48.0 °F 93% 30.11 in 8.0 mi NW 6.9 mph - N/A   Scattered Clouds
8:53 AM 55.0 °F 51.1 °F 86% 30.12 in 10.0 mi North 4.6 mph - N/A   Partly Cloudy
9:53 AM 61.0 °F 54.0 °F 78% 30.15 in 10.0 mi North 8.1 mph - N/A   Partly Cloudy
10:53 AM 63.0 °F 54.0 °F 72% 30.15 in 10.0 mi North 11.5 mph - N/A   Partly Cloudy
11:53 AM 64.9 °F 53.1 °F 65% 30.14 in 10.0 mi NNE 12.7 mph - N/A   Partly Cloudy
12:53 PM 66.0 °F 52.0 °F 60% 30.12 in 10.0 mi NNE 15.0 mph - N/A   Partly Cloudy
1:53 PM 66.9 °F 52.0 °F 59% 30.10 in 10.0 mi NNE 12.7 mph - N/A   Partly Cloudy
2:53 PM 66.9 °F 52.0 °F 59% 30.09 in 10.0 mi NNE 10.4 mph - N/A   Partly Cloudy
3:53 PM 66.0 °F 51.1 °F 59% 30.08 in 10.0 mi NNE 9.2 mph - N/A   Partly Cloudy
4:53 PM 63.0 °F 50.0 °F 63% 30.08 in 10.0 mi NE 10.4 mph - N/A   Partly Cloudy
5:53 PM 61.0 °F 50.0 °F 67% 30.09 in 10.0 mi NNE 8.1 mph - N/A   Partly Cloudy
6:53 PM 59.0 °F 50.0 °F 72% 30.10 in 10.0 mi NNE 4.6 mph - N/A   Partly Cloudy
7:53 PM 54.0 °F 50.0 °F 86% 30.11 in 10.0 mi Calm Calm - N/A   Clear
8:53 PM 55.9 °F 50.0 °F 80% 30.12 in 10.0 mi Calm Calm - N/A   Clear
9:53 PM 54.0 °F 48.0 °F 80% 30.13 in 10.0 mi Calm Calm - N/A   Clear
10:53 PM 51.1 °F 48.0 °F 89% 30.12 in 10.0 mi Calm Calm - N/A   Clear
11:53 PM 50.0 °F 48.0 °F 93% 30.11 in 8.0 mi Calm Calm - N/A   Clear